Saint Bonnet de Bellac- Haute Vienne - France
Donnes mto: jeudi, 24/05/2012
Date Horaire Temp. E. Hum. E. P.atmo. Pluie Vent Direction Direction Ensoleilleme Solaire P. de rose Temp au vent Rafales
24/05/2012 00:00 16,5 C 87 % 1023,3 hPa 0,0 mm 0,0 km/h (0 Bft) N-NO 337 0 min 0 W/m 14,3 C 16,5 C 0,0 km/h (0 Bft)
24/05/2012 00:10 16,8 C 87 % 1023,3 hPa 0,0 mm 0,0 km/h (0 Bft) N-NO 337 0 min 0 W/m 14,6 C 16,8 C 0,0 km/h (0 Bft)
24/05/2012 00:20 16,8 C 88 % 1023,2 hPa 0,0 mm 0,0 km/h (0 Bft) N-NO 337 0 min 0 W/m 14,8 C 16,8 C 0,0 km/h (0 Bft)
24/05/2012 00:30 16,8 C 88 % 1023,3 hPa 0,0 mm 0,0 km/h (0 Bft) N-NO 337 0 min 0 W/m 14,8 C 16,8 C 0,0 km/h (0 Bft)
24/05/2012 00:40 16,8 C 87 % 1023,2 hPa 0,0 mm 0,0 km/h (0 Bft) N-NO 337 0 min 0 W/m 14,6 C 16,8 C 0,0 km/h (0 Bft)
24/05/2012 00:50 16,6 C 87 % 1023,1 hPa 0,0 mm 0,4 km/h (0 Bft) N-NO 337 0 min 0 W/m 14,4 C 16,6 C 3,2 km/h (1 Bft)
24/05/2012 01:00 16,5 C 87 % 1023,1 hPa 0,0 mm 0,0 km/h (0 Bft) N-NO 337 0 min 0 W/m 14,3 C 16,5 C 0,0 km/h (0 Bft)
24/05/2012 01:10 16,4 C 87 % 1023,2 hPa 0,0 mm 0,0 km/h (0 Bft) N-NO 337 0 min 0 W/m 14,2 C 16,4 C 0,0 km/h (0 Bft)
24/05/2012 01:20 16,3 C 87 % 1023,1 hPa 0,0 mm 0,0 km/h (0 Bft) N-NO 337 0 min 0 W/m 14,1 C 16,3 C 0,0 km/h (0 Bft)
24/05/2012 01:30 16,2 C 88 % 1023,1 hPa 0,0 mm 0,0 km/h (0 Bft) N-NO 337 0 min 0 W/m 14,2 C 16,2 C 0,0 km/h (0 Bft)
24/05/2012 01:40 16,1 C 88 % 1023,1 hPa 0,0 mm 0,0 km/h (0 Bft) N-NO 337 0 min 0 W/m 14,1 C 16,1 C 0,0 km/h (0 Bft)
24/05/2012 01:50 16,2 C 89 % 1023,1 hPa 0,0 mm 0,4 km/h (0 Bft) N-NO 337 0 min 0 W/m 14,4 C 16,2 C 3,2 km/h (1 Bft)
24/05/2012 02:00 16,3 C 89 % 1023,0 hPa 0,0 mm 0,0 km/h (0 Bft) N-NO 337 0 min 0 W/m 14,5 C 16,3 C 0,0 km/h (0 Bft)
24/05/2012 02:10 16,3 C 89 % 1023,0 hPa 0,0 mm 0,0 km/h (0 Bft) N-NO 337 0 min 0 W/m 14,5 C 16,3 C 0,0 km/h (0 Bft)
24/05/2012 02:20 16,4 C 89 % 1023,0 hPa 0,0 mm 0,0 km/h (0 Bft) N 360 0 min 0 W/m 14,6 C 16,4 C 0,0 km/h (0 Bft)
24/05/2012 02:30 16,4 C 89 % 1023,0 hPa 0,0 mm 0,0 km/h (0 Bft) N-NE 22 0 min 0 W/m 14,6 C 16,4 C 0,0 km/h (0 Bft)
24/05/2012 02:40 16,3 C 89 % 1023,0 hPa 0,0 mm 1,1 km/h (1 Bft) N 360 0 min 0 W/m 14,5 C 16,3 C 5,8 km/h (2 Bft)
24/05/2012 02:50 16,3 C 89 % 1022,8 hPa 0,0 mm 2,2 km/h (1 Bft) N 360 0 min 0 W/m 14,5 C 16,3 C 4,0 km/h (1 Bft)
24/05/2012 03:02 16,2 C 89 % 1022,8 hPa 0,0 mm 2,9 km/h (1 Bft) N-NE 22 0 min 0 W/m 14,4 C 16,2 C 4,0 km/h (1 Bft)
24/05/2012 03:10 16,0 C 90 % 1022,8 hPa 0,0 mm 0,0 km/h (0 Bft) N 360 0 min 0 W/m 14,4 C 16,0 C 0,0 km/h (0 Bft)
24/05/2012 03:20 15,9 C 90 % 1022,7 hPa 0,0 mm 1,8 km/h (1 Bft) N 360 0 min 0 W/m 14,3 C 15,9 C 6,5 km/h (2 Bft)
24/05/2012 03:30 15,8 C 90 % 1022,7 hPa 0,0 mm 0,0 km/h (0 Bft) N 360 0 min 0 W/m 14,2 C 15,8 C 0,0 km/h (0 Bft)
24/05/2012 03:40 15,6 C 90 % 1022,7 hPa 0,0 mm 0,0 km/h (0 Bft) N 360 0 min 0 W/m 14,0 C 15,6 C 0,0 km/h (0 Bft)
24/05/2012 03:50 15,5 C 91 % 1022,7 hPa 0,0 mm 0,0 km/h (0 Bft) N 360 0 min 0 W/m 14,0 C 15,5 C 0,0 km/h (0 Bft)
24/05/2012 04:00 15,4 C 91 % 1022,7 hPa 0,0 mm 0,4 km/h (0 Bft) N 360 0 min 0 W/m 13,9 C 15,4 C 0,4 km/h (0 Bft)
24/05/2012 04:10 15,4 C 91 % 1022,7 hPa 0,0 mm 2,2 km/h (1 Bft) N-NE 22 0 min 0 W/m 13,9 C 15,4 C 3,2 km/h (1 Bft)
24/05/2012 04:20 15,4 C 91 % 1022,7 hPa 0,0 mm 0,0 km/h (0 Bft) N 360 0 min 0 W/m 13,9 C 15,4 C 0,0 km/h (0 Bft)
24/05/2012 04:30 15,3 C 91 % 1022,7 hPa 0,0 mm 2,2 km/h (1 Bft) N 360 0 min 0 W/m 13,8 C 15,3 C 4,3 km/h (1 Bft)
24/05/2012 04:40 15,3 C 91 % 1022,6 hPa 0,0 mm 0,0 km/h (0 Bft) N 360 0 min 0 W/m 13,8 C 15,3 C 1,4 km/h (1 Bft)
24/05/2012 04:50 15,2 C 91 % 1022,5 hPa 0,0 mm 0,0 km/h (0 Bft) N 360 0 min 0 W/m 13,7 C 15,2 C 3,6 km/h (1 Bft)
24/05/2012 05:00 15,1 C 91 % 1022,6 hPa 0,0 mm 0,0 km/h (0 Bft) N 360 0 min 0 W/m 13,6 C 15,1 C 0,0 km/h (0 Bft)
24/05/2012 05:10 15,1 C 91 % 1022,6 hPa 0,0 mm 0,0 km/h (0 Bft) N 360 0 min 0 W/m 13,6 C 15,1 C 0,0 km/h (0 Bft)
24/05/2012 05:20 15,1 C 91 % 1022,6 hPa 0,0 mm 1,1 km/h (1 Bft) N 360 0 min 0 W/m 13,6 C 15,1 C 4,3 km/h (1 Bft)
24/05/2012 05:30 15,2 C 91 % 1022,5 hPa 0,0 mm 0,0 km/h (0 Bft) N 360 0 min 0 W/m 13,7 C 15,2 C 0,0 km/h (0 Bft)
24/05/2012 05:40 15,3 C 92 % 1022,5 hPa 0,0 mm 0,7 km/h (0 Bft) N 360 0 min 0 W/m 14,0 C 15,3 C 4,3 km/h (1 Bft)
24/05/2012 05:50 15,4 C 92 % 1022,6 hPa 0,0 mm 0,0 km/h (0 Bft) N 360 0 min 0 W/m 14,1 C 15,4 C 0,0 km/h (0 Bft)
24/05/2012 06:00 15,5 C 92 % 1022,6 hPa 0,0 mm 0,0 km/h (0 Bft) N-NE 22 0 min 0 W/m 14,2 C 15,5 C 0,0 km/h (0 Bft)
24/05/2012 06:10 15,5 C 92 % 1022,6 hPa 0,0 mm 0,0 km/h (0 Bft) N-NE 22 0 min 0 W/m 14,2 C 15,5 C 0,0 km/h (0 Bft)
24/05/2012 06:20 15,6 C 92 % 1022,6 hPa 0,0 mm 0,0 km/h (0 Bft) N-NE 22 0 min 0 W/m 14,3 C 15,6 C 0,0 km/h (0 Bft)
24/05/2012 06:30 15,6 C 92 % 1022,6 hPa 0,0 mm 0,4 km/h (0 Bft) N-NE 22 0 min 0 W/m 14,3 C 15,6 C 4,3 km/h (1 Bft)
24/05/2012 06:40 15,6 C 92 % 1022,6 hPa 0,0 mm 0,0 km/h (0 Bft) N-NE 22 0 min 0 W/m 14,3 C 15,6 C 0,0 km/h (0 Bft)
24/05/2012 06:50 15,7 C 92 % 1022,6 hPa 0,0 mm 0,0 km/h (0 Bft) N 360 0 min 0 W/m 14,4 C 15,7 C 0,0 km/h (0 Bft)
24/05/2012 07:00 15,7 C 93 % 1022,7 hPa 0,0 mm 1,4 km/h (1 Bft) NE 45 0 min 0 W/m 14,6 C 15,7 C 4,3 km/h (1 Bft)
24/05/2012 07:10 15,7 C 93 % 1022,7 hPa 0,0 mm 1,4 km/h (1 Bft) N-NO 337 0 min 0 W/m 14,6 C 15,7 C 6,1 km/h (2 Bft)
24/05/2012 07:20 15,7 C 93 % 1022,7 hPa 0,0 mm 0,0 km/h (0 Bft) N-NE 22 0 min 0 W/m 14,6 C 15,7 C 0,0 km/h (0 Bft)
24/05/2012 07:30 15,8 C 93 % 1022,6 hPa 0,0 mm 1,4 km/h (1 Bft) N 360 0 min 0 W/m 14,7 C 15,8 C 4,0 km/h (1 Bft)
24/05/2012 07:40 15,8 C 93 % 1022,6 hPa 0,0 mm 1,1 km/h (1 Bft) NE 45 0 min 0 W/m 14,7 C 15,8 C 3,6 km/h (1 Bft)
24/05/2012 07:50 15,8 C 93 % 1022,5 hPa 0,0 mm 0,0 km/h (0 Bft) N 360 0 min 0 W/m 14,7 C 15,8 C 0,0 km/h (0 Bft)
24/05/2012 08:00 15,8 C 93 % 1022,6 hPa 0,0 mm 2,9 km/h (1 Bft) N-NE 22 0 min 0 W/m 14,7 C 15,8 C 4,0 km/h (1 Bft)
24/05/2012 08:10 15,8 C 93 % 1022,4 hPa 0,0 mm 2,2 km/h (1 Bft) N-NE 22 0 min 0 W/m 14,7 C 15,8 C 4,3 km/h (1 Bft)
24/05/2012 08:20 15,8 C 93 % 1022,6 hPa 0,0 mm 2,2 km/h (1 Bft) N 360 0 min 0 W/m 14,7 C 15,8 C 2,2 km/h (1 Bft)
24/05/2012 08:30 15,8 C 93 % 1022,5 hPa 0,0 mm 3,6 km/h (1 Bft) N-NE 22 0 min 0 W/m 14,7 C 15,8 C 5,8 km/h (2 Bft)
24/05/2012 08:40 15,8 C 93 % 1022,6 hPa 0,0 mm 3,2 km/h (1 Bft) N 360 0 min 0 W/m 14,7 C 15,8 C 3,6 km/h (1 Bft)
24/05/2012 08:50 15,8 C 93 % 1022,6 hPa 0,0 mm 1,8 km/h (1 Bft) N 360 0 min 0 W/m 14,7 C 15,8 C 1,8 km/h (1 Bft)
24/05/2012 09:00 15,9 C 93 % 1022,6 hPa 0,0 mm 0,4 km/h (0 Bft) N 360 0 min 0 W/m 14,8 C 15,9 C 3,6 km/h (1 Bft)
24/05/2012 09:10 16,1 C 93 % 1022,5 hPa 0,0 mm 0,4 km/h (0 Bft) N 360 0 min 0 W/m 15,0 C 16,1 C 0,4 km/h (0 Bft)
24/05/2012 09:20 16,1 C 93 % 1022,4 hPa 0,0 mm 0,4 km/h (0 Bft) N-NE 22 0 min 0 W/m 15,0 C 16,1 C 3,2 km/h (1 Bft)
24/05/2012 09:30 16,3 C 93 % 1022,4 hPa 0,0 mm 1,1 km/h (1 Bft) N-NE 22 0 min 0 W/m 15,2 C 16,3 C 4,0 km/h (1 Bft)
24/05/2012 09:40 16,4 C 93 % 1022,4 hPa 0,0 mm 1,1 km/h (1 Bft) N-NE 22 0 min 0 W/m 15,3 C 16,4 C 6,5 km/h (2 Bft)
24/05/2012 09:50 16,5 C 93 % 1022,5 hPa 0,0 mm 0,0 km/h (0 Bft) N-NE 22 0 min 0 W/m 15,4 C 16,5 C 0,0 km/h (0 Bft)
24/05/2012 10:00 16,8 C 93 % 1022,6 hPa 0,0 mm 1,1 km/h (1 Bft) N-NE 22 0 min 0 W/m 15,7 C 16,8 C 3,6 km/h (1 Bft)
24/05/2012 10:10 16,9 C 93 % 1022,6 hPa 0,0 mm 2,9 km/h (1 Bft) N-NE 22 0 min 0 W/m 15,8 C 16,9 C 5,0 km/h (1 Bft)
24/05/2012 10:20 17,1 C 93 % 1022,4 hPa 0,0 mm 5,8 km/h (2 Bft) N 360 0 min 0 W/m 16,0 C 17,1 C 10,1 km/h (2 Bft)
24/05/2012 10:30 17,3 C 93 % 1022,3 hPa 0,0 mm 0,7 km/h (0 Bft) NE 45 0 min 0 W/m 16,2 C 17,3 C 4,3 km/h (1 Bft)
24/05/2012 10:40 17,6 C 94 % 1022,3 hPa 0,0 mm 1,4 km/h (1 Bft) N-NE 22 0 min 0 W/m 16,6 C 17,6 C 4,0 km/h (1 Bft)
24/05/2012 10:50 18,0 C 93 % 1022,3 hPa 0,0 mm 4,7 km/h (1 Bft) N-NE 22 0 min 0 W/m 16,8 C 18,0 C 8,3 km/h (2 Bft)
24/05/2012 11:00 18,5 C 93 % 1022,3 hPa 0,0 mm 2,5 km/h (1 Bft) N 360 0 min 0 W/m 17,3 C 18,5 C 8,3 km/h (2 Bft)
24/05/2012 11:10 19,3 C 94 % 1022,3 hPa 0,0 mm 2,9 km/h (1 Bft) NE 45 0 min 0 W/m 18,3 C 19,3 C 2,9 km/h (1 Bft)
24/05/2012 11:20 19,9 C 92 % 1022,3 hPa 0,0 mm 0,0 km/h (0 Bft) N 360 0 min 0 W/m 18,6 C 19,9 C 0,0 km/h (0 Bft)
24/05/2012 11:30 20,4 C 89 % 1022,3 hPa 0,0 mm 8,6 km/h (2 Bft) NE 45 0 min 0 W/m 18,5 C 20,4 C 8,6 km/h (2 Bft)
24/05/2012 11:40 20,9 C 86 % 1022,2 hPa 0,0 mm 6,8 km/h (2 Bft) N-NO 337 0 min 0 W/m 18,5 C 20,9 C 11,5 km/h (2 Bft)
24/05/2012 11:50 21,3 C 84 % 1022,3 hPa 0,0 mm 3,2 km/h (1 Bft) NE 45 0 min 0 W/m 18,5 C 21,3 C 6,5 km/h (2 Bft)
24/05/2012 12:00 21,4 C 83 % 1022,2 hPa 0,0 mm 4,3 km/h (1 Bft) N 360 0 min 0 W/m 18,4 C 21,4 C 4,3 km/h (1 Bft)
24/05/2012 12:10 21,8 C 82 % 1022,2 hPa 0,0 mm 4,7 km/h (1 Bft) N 360 0 min 0 W/m 18,6 C 21,8 C 9,0 km/h (2 Bft)
24/05/2012 12:20 22,0 C 81 % 1022,2 hPa 0,0 mm 7,2 km/h (2 Bft) N-NE 22 0 min 0 W/m 18,6 C 22,0 C 13,7 km/h (3 Bft)
24/05/2012 12:30 22,3 C 79 % 1022,1 hPa 0,0 mm 9,0 km/h (2 Bft) E-NE 67 0 min 0 W/m 18,5 C 22,3 C 13,3 km/h (3 Bft)
24/05/2012 12:40 22,4 C 78 % 1022,1 hPa 0,0 mm 4,7 km/h (1 Bft) N-NE 22 0 min 0 W/m 18,4 C 22,4 C 8,6 km/h (2 Bft)
24/05/2012 12:50 22,6 C 78 % 1021,9 hPa 0,0 mm 9,7 km/h (2 Bft) N-NE 22 0 min 0 W/m 18,6 C 22,6 C 16,6 km/h (3 Bft)
24/05/2012 13:00 22,9 C 77 % 1021,9 hPa 0,0 mm 5,8 km/h (2 Bft) N 360 0 min 0 W/m 18,6 C 22,9 C 11,2 km/h (2 Bft)
24/05/2012 13:10 23,3 C 75 % 1021,9 hPa 0,0 mm 5,4 km/h (2 Bft) NE 45 0 min 0 W/m 18,6 C 23,3 C 11,5 km/h (2 Bft)
24/05/2012 13:20 23,6 C 75 % 1021,7 hPa 0,0 mm 6,5 km/h (2 Bft) N-NE 22 0 min 0 W/m 18,9 C 23,6 C 6,8 km/h (2 Bft)
24/05/2012 13:30 23,9 C 73 % 1021,7 hPa 0,0 mm 9,4 km/h (2 Bft) N 360 0 min 0 W/m 18,8 C 23,9 C 11,5 km/h (2 Bft)
24/05/2012 13:40 23,8 C 73 % 1021,7 hPa 0,0 mm 4,0 km/h (1 Bft) NE 45 0 min 0 W/m 18,7 C 23,8 C 4,3 km/h (1 Bft)
24/05/2012 13:50 23,9 C 72 % 1021,6 hPa 0,0 mm 6,5 km/h (2 Bft) NE 45 0 min 0 W/m 18,5 C 23,9 C 11,9 km/h (2 Bft)
24/05/2012 14:00 24,1 C 71 % 1021,6 hPa 0,0 mm 7,6 km/h (2 Bft) NE 45 0 min 0 W/m 18,5 C 24,1 C 11,5 km/h (2 Bft)
24/05/2012 14:10 23,9 C 72 % 1021,4 hPa 0,0 mm 5,4 km/h (2 Bft) N 360 0 min 0 W/m 18,5 C 23,9 C 8,6 km/h (2 Bft)
24/05/2012 14:20 24,1 C 71 % 1021,3 hPa 0,0 mm 8,3 km/h (2 Bft) E-NE 67 0 min 0 W/m 18,5 C 24,1 C 11,9 km/h (2 Bft)
24/05/2012 14:30 24,2 C 70 % 1021,2 hPa 0,0 mm 8,6 km/h (2 Bft) N-NE 22 0 min 0 W/m 18,4 C 24,2 C 9,4 km/h (2 Bft)
24/05/2012 14:40 24,2 C 70 % 1021,1 hPa 0,0 mm 9,7 km/h (2 Bft) NE 45 0 min 0 W/m 18,4 C 24,2 C 16,6 km/h (3 Bft)
24/05/2012 14:50 24,4 C 70 % 1021,0 hPa 0,0 mm 2,9 km/h (1 Bft) NE 45 0 min 0 W/m 18,6 C 24,4 C 7,6 km/h (2 Bft)
24/05/2012 15:00 24,8 C 71 % 1020,9 hPa 0,0 mm 3,6 km/h (1 Bft) N-NE 22 0 min 0 W/m 19,2 C 24,8 C 8,6 km/h (2 Bft)
24/05/2012 15:10 24,9 C 68 % 1020,8 hPa 0,0 mm 7,6 km/h (2 Bft) N 360 0 min 0 W/m 18,6 C 24,9 C 7,6 km/h (2 Bft)
24/05/2012 15:20 24,9 C 69 % 1020,7 hPa 0,0 mm 6,8 km/h (2 Bft) N-NE 22 0 min 0 W/m 18,8 C 24,9 C 12,2 km/h (2 Bft)
24/05/2012 15:30 24,9 C 69 % 1020,5 hPa 0,0 mm 5,8 km/h (2 Bft) N-NE 22 0 min 0 W/m 18,8 C 24,9 C 12,2 km/h (2 Bft)
24/05/2012 15:40 24,9 C 68 % 1020,5 hPa 0,0 mm 12,2 km/h (2 Bft) N-NE 22 0 min 0 W/m 18,6 C 24,9 C 21,2 km/h (4 Bft)
24/05/2012 15:50 25,0 C 67 % 1020,4 hPa 0,0 mm 8,6 km/h (2 Bft) N-NO 337 0 min 0 W/m 18,4 C 25,0 C 8,6 km/h (2 Bft)
24/05/2012 16:00 25,0 C 66 % 1020,3 hPa 0,0 mm 7,2 km/h (2 Bft) N-NE 22 0 min 0 W/m 18,2 C 25,0 C 9,4 km/h (2 Bft)
24/05/2012 16:10 24,9 C 67 % 1020,2 hPa 0,0 mm 7,2 km/h (2 Bft) N-NE 22 0 min 0 W/m 18,3 C 24,9 C 15,8 km/h (3 Bft)
24/05/2012 16:20 24,9 C 67 % 1020,2 hPa 0,0 mm 4,3 km/h (1 Bft) N-NE 22 0 min 0 W/m 18,3 C 24,9 C 7,2 km/h (2 Bft)
24/05/2012 16:30 25,0 C 69 % 1020,0 hPa 0,0 mm 3,6 km/h (1 Bft) NE 45 0 min 0 W/m 18,9 C 25,0 C 4,3 km/h (1 Bft)
24/05/2012 16:40 25,2 C 68 % 1020,0 hPa 0,0 mm 9,7 km/h (2 Bft) NE 45 0 min 0 W/m 18,9 C 25,2 C 16,9 km/h (3 Bft)
24/05/2012 16:50 25,2 C 68 % 1019,9 hPa 0,0 mm 5,8 km/h (2 Bft) N-NE 22 0 min 0 W/m 18,9 C 25,2 C 7,9 km/h (2 Bft)
24/05/2012 17:00 25,2 C 68 % 1019,8 hPa 0,0 mm 9,4 km/h (2 Bft) NE 45 0 min 0 W/m 18,9 C 25,2 C 14,4 km/h (3 Bft)
24/05/2012 17:10 25,3 C 67 % 1019,7 hPa 0,0 mm 11,2 km/h (2 Bft) NE 45 0 min 0 W/m 18,7 C 25,3 C 16,2 km/h (3 Bft)
24/05/2012 17:20 25,4 C 68 % 1019,7 hPa 0,0 mm 5,8 km/h (2 Bft) NE 45 0 min 0 W/m 19,1 C 25,4 C 10,8 km/h (2 Bft)
24/05/2012 17:30 25,6 C 66 % 1019,6 hPa 0,0 mm 8,3 km/h (2 Bft) N-NE 22 0 min 0 W/m 18,8 C 25,6 C 14,0 km/h (3 Bft)
24/05/2012 17:40 25,5 C 67 % 1019,6 hPa 0,0 mm 6,5 km/h (2 Bft) NE 45 0 min 0 W/m 18,9 C 25,5 C 11,2 km/h (2 Bft)
24/05/2012 17:50 25,4 C 66 % 1019,4 hPa 0,0 mm 10,1 km/h (2 Bft) E-NE 67 0 min 0 W/m 18,6 C 25,4 C 14,8 km/h (3 Bft)
24/05/2012 18:00 25,3 C 66 % 1019,2 hPa 0,0 mm 8,6 km/h (2 Bft) N-NE 22 0 min 0 W/m 18,5 C 25,3 C 10,1 km/h (2 Bft)
24/05/2012 18:10 25,3 C 66 % 1019,1 hPa 0,0 mm 10,1 km/h (2 Bft) N-NE 22 0 min 0 W/m 18,5 C 25,3 C 15,1 km/h (3 Bft)
24/05/2012 18:20 25,3 C 66 % 1019,1 hPa 0,0 mm 7,6 km/h (2 Bft) NE 45 0 min 0 W/m 18,5 C 25,3 C 13,0 km/h (3 Bft)
24/05/2012 18:30 25,2 C 66 % 1019,0 hPa 0,0 mm 5,8 km/h (2 Bft) N-NE 22 0 min 0 W/m 18,4 C 25,2 C 14,0 km/h (3 Bft)
24/05/2012 18:40 25,2 C 68 % 1018,9 hPa 0,0 mm 7,9 km/h (2 Bft) N 360 0 min 0 W/m 18,9 C 25,2 C 15,1 km/h (3 Bft)
24/05/2012 18:50 25,2 C 68 % 1018,8 hPa 0,0 mm 4,7 km/h (1 Bft) N 360 0 min 0 W/m 18,9 C 25,2 C 7,6 km/h (2 Bft)
24/05/2012 19:00 25,1 C 68 % 1018,8 hPa 0,0 mm 7,6 km/h (2 Bft) N-NE 22 0 min 0 W/m 18,8 C 25,1 C 7,6 km/h (2 Bft)
24/05/2012 19:10 25,1 C 67 % 1018,7 hPa 0,0 mm 8,6 km/h (2 Bft) E-NE 67 0 min 0 W/m 18,5 C 25,1 C 11,5 km/h (2 Bft)
24/05/2012 19:20 24,9 C 67 % 1018,7 hPa 0,0 mm 6,8 km/h (2 Bft) N-NE 22 0 min 0 W/m 18,3 C 24,9 C 8,6 km/h (2 Bft)
24/05/2012 19:30 24,7 C 68 % 1018,6 hPa 0,0 mm 6,1 km/h (2 Bft) N-NE 22 0 min 0 W/m 18,4 C 24,7 C 6,1 km/h (2 Bft)
24/05/2012 19:40 24,5 C 69 % 1018,6 hPa 0,0 mm 4,7 km/h (1 Bft) NE 45 0 min 0 W/m 18,4 C 24,5 C 7,2 km/h (2 Bft)
24/05/2012 19:50 24,5 C 70 % 1018,6 hPa 0,0 mm 7,9 km/h (2 Bft) E-NE 67 0 min 0 W/m 18,7 C 24,5 C 10,8 km/h (2 Bft)
24/05/2012 20:00 24,3 C 70 % 1018,6 hPa 0,0 mm 3,2 km/h (1 Bft) E-NE 67 0 min 0 W/m 18,5 C 24,3 C 7,9 km/h (2 Bft)
24/05/2012 20:10 24,1 C 71 % 1018,6 hPa 0,0 mm 0,7 km/h (0 Bft) NE 45 0 min 0 W/m 18,5 C 24,1 C 4,0 km/h (1 Bft)
24/05/2012 20:20 23,8 C 71 % 1018,5 hPa 0,0 mm 1,4 km/h (1 Bft) N-NE 22 0 min 0 W/m 18,2 C 23,8 C 4,0 km/h (1 Bft)
24/05/2012 20:30 23,4 C 72 % 1018,6 hPa 0,0 mm 1,4 km/h (1 Bft) N-NE 22 0 min 0 W/m 18,1 C 23,4 C 6,8 km/h (2 Bft)
24/05/2012 20:40 23,1 C 73 % 1018,6 hPa 0,0 mm 0,7 km/h (0 Bft) NE 45 0 min 0 W/m 18,0 C 23,1 C 3,6 km/h (1 Bft)
24/05/2012 20:50 22,8 C 74 % 1018,7 hPa 0,0 mm 1,4 km/h (1 Bft) N-NE 22 0 min 0 W/m 17,9 C 22,8 C 3,6 km/h (1 Bft)
24/05/2012 21:00 22,5 C 75 % 1018,7 hPa 0,0 mm 0,0 km/h (0 Bft) NE 45 0 min 0 W/m 17,8 C 22,5 C 0,0 km/h (0 Bft)
24/05/2012 21:10 22,3 C 75 % 1018,7 hPa 0,0 mm 0,0 km/h (0 Bft) NE 45 0 min 0 W/m 17,6 C 22,3 C 0,0 km/h (0 Bft)
24/05/2012 21:20 21,9 C 76 % 1018,6 hPa 0,0 mm 0,0 km/h (0 Bft) NE 45 0 min 0 W/m 17,5 C 21,9 C 0,0 km/h (0 Bft)
24/05/2012 21:30 21,6 C 76 % 1018,6 hPa 0,0 mm 0,0 km/h (0 Bft) NE 45 0 min 0 W/m 17,2 C 21,6 C 0,0 km/h (0 Bft)
24/05/2012 21:40 21,3 C 77 % 1018,7 hPa 0,0 mm 0,0 km/h (0 Bft) NE 45 0 min 0 W/m 17,1 C 21,3 C 0,0 km/h (0 Bft)
24/05/2012 21:50 21,1 C 78 % 1018,6 hPa 0,0 mm 0,0 km/h (0 Bft) NE 45 0 min 0 W/m 17,1 C 21,1 C 0,0 km/h (0 Bft)
24/05/2012 22:00 20,8 C 79 % 1018,7 hPa 0,0 mm 0,0 km/h (0 Bft) NE 45 0 min 0 W/m 17,0 C 20,8 C 0,0 km/h (0 Bft)
24/05/2012 22:10 20,3 C 80 % 1018,7 hPa 0,0 mm 0,0 km/h (0 Bft) NE 45 0 min 0 W/m 16,7 C 20,3 C 0,0 km/h (0 Bft)
24/05/2012 22:20 20,1 C 80 % 1018,8 hPa 0,0 mm 0,0 km/h (0 Bft) NE 45 0 min 0 W/m 16,5 C 20,1 C 0,0 km/h (0 Bft)
24/05/2012 22:30 19,6 C 81 % 1018,9 hPa 0,0 mm 0,0 km/h (0 Bft) NE 45 0 min 0 W/m 16,2 C 19,6 C 0,0 km/h (0 Bft)
24/05/2012 22:40 19,4 C 82 % 1018,9 hPa 0,0 mm 0,0 km/h (0 Bft) NE 45 0 min 0 W/m 16,2 C 19,4 C 0,0 km/h (0 Bft)
24/05/2012 22:50 19,1 C 82 % 1018,9 hPa 0,0 mm 0,0 km/h (0 Bft) NE 45 0 min 0 W/m 16,0 C 19,1 C 0,0 km/h (0 Bft)
_ Min-Heure 05:20 18:30 20:20 - 22:50 - - - - 05:20 05:20 22:50
Minimum _ 15,1 C 66 % 1018,5 hPa - 0,0 km/h (0 Bft) - - - - 13,6 C 15,1 C 0,0 km/h (0 Bft)
_ Max-Heure 17:30 11:10 00:30 22:50 15:40 - - 22:50 22:50 15:00 17:30 15:40
Maximum _ 25,6 C 94 % 1023,3 hPa 0,0 mm 12,2 km/h
N-NE (2 Bft)
- - 0 min 0 W/m 19,2 C 25,6 C 21,2 km/h
N-NE (4 Bft)
Moyenne _ 19,9 C 82 % 1021,4 hPa #0,0 mm 3,1 km/h (1 Bft) N-NE - #0 min. 0 W/m 16,5 C 19,9 C 5,4 km/h (2 Bft)
Saint Bonnet de Bellac- Haute Vienne - France